Wind_Speed
46 47 48 49 49 51 51 53 56 54 51 47 40 28 17 15 20 28 33 32 32 35 39 47 55 66 65 72 86 91 96 95 92 86 89 65 63 71 73 87 71 76 60 75
42 45 47 47 47 47 50 52 53 56 52 49 45 35 24 15 17 23 31 32 32 33 39 47 55 69 62 51 61 87 93 91 90 91 76 78 79 63 56 67 65 67 76 66
41 44 46 47 46 46 47 50 53 54 55 52 48 42 30 22 14 19 27 32 33 33 39 45 51 66 50 64 54 84 91 93 88 91 84 74 82 65 72 58 65 71 58 72
39 43 46 46 48 49 45 48 49 51 54 52 49 44 38 26 18 15 23 31 35 36 38 47 49 63 47 54 61 77 86 89 86 84 81 72 64 62 64 65 64 60 68 67
40 42 42 46 46 49 49 46 47 53 55 54 50 47 40 33 22 16 18 28 34 38 39 45 49 63 63 49 61 73 86 85 80 77 73 72 62 60 64 64 65 64 66 71
37 40 44 46 47 48 50 50 52 52 54 55 54 50 47 39 30 19 15 21 33 39 42 44 51 55 68 69 52 71 81 83 79 64 78 67 66 70 59 65 69 70 62 66
36 39 42 46 46 47 50 51 52 52 53 55 54 52 49 42 35 27 19 17 25 38 44 47 51 56 66 74 67 60 73 86 85 87 75 63 59 57 64 60 58 62 73 77
35 39 42 44 46 45 47 48 51 52 53 54 55 53 51 46 39 31 24 20 20 29 43 48 51 57 58 72 76 68 67 78 90 88 85 85 66 65 71 66 65 61 65 69
34 37 40 42 44 45 46 48 50 52 53 54 55 53 52 49 44 37 29 22 21 22 34 47 53 56 60 62 80 73 73 72 82 90 89 84 87 92 80 77 72 69 69 66
32 36 38 41 43 45 47 47 50 51 52 54 54 54 54 52 48 43 35 27 23 23 25 37 50 57 60 62 64 81 77 74 76 79 78 75 76 83 90 89 90 88 81 78
32 35 37 40 41 44 46 48 50 51 52 54 54 55 56 54 52 47 40 33 27 25 26 29 40 52 59 61 65 67 77 86 78 81 81 77 76 78 78 79 79 87 90 87
33 36 38 40 42 43 46 48 50 52 53 54 55 56 57 56 54 49 43 36 31 27 27 29 33 42 53 60 63 67 67 72 83 86 81 77 74 78 81 79 75 76 83 82
35 37 39 40 43 44 47 49 51 52 54 56 56 57 58 58 57 52 46 38 34 29 28 29 32 36 45 53 60 64 68 69 72 81 89 88 81 78 78 77 81 81 77 77
35 37 38 40 43 46 48 50 52 54 55 57 57 58 59 60 58 56 49 41 35 31 28 27 30 33 37 46 53 59 65 70 72 73 77 86 88 84 83 83 80 81 82 82
35 36 38 40 43 47 49 51 52 55 56 58 59 59 61 62 60 57 51 44 37 33 28 26 28 32 34 39 45 53 58 65 70 72 74 74 78 82 86 85 82 78 82 86
33 37 39 41 44 48 50 52 53 56 58 59 60 61 62 62 61 58 52 46 38 33 28 27 29 29 32 35 40 45 52 56 63 70 73 75 75 74 75 83 85 82 82 82
35 38 40 42 45 48 52 54 55 57 59 60 62 62 64 64 61 58 52 46 38 32 29 27 28 27 30 32 35 39 44 49 54 60 70 75 76 77 76 74 75 78 81 82
37 39 41 44 47 50 54 56 57 58 60 61 63 64 65 65 62 58 51 45 38 33 28 27 27 27 29 30 32 34 37 42 48 52 57 66 75 76 76 76 76 75 76 78
39 40 44 45 49 52 56 58 59 60 61 63 65 65 66 66 62 58 50 43 37 33 28 27 26 27 28 29 28 30 33 35 40 46 48 53 59 70 77 77 76 77 77 77
42 43 47 48 51 54 58 60 61 61 63 64 66 67 68 65 61 55 48 41 36 32 29 27 26 26 27 27 27 28 29 32 34 37 43 46 48 55 60 70 77 77 78 79
43 46 49 51 53 56 60 61 62 62 64 65 67 68 67 64 59 53 45 39 34 31 28 26 25 25 25 25 26 27 29 30 31 33 36 39 43 46 50 56 61 70 78 80
45 48 51 53 55 58 61 62 63 63 65 66 68 68 66 61 56 49 43 36 32 29 26 25 24 24 23 23 24 25 26 29 30 32 33 35 38 41 44 47 50 56 61 69
47 50 53 54 56 60 62 64 63 64 66 67 68 67 63 59 52 46 40 34 30 27 25 24 23 23 23 23 24 26 27 28 30 32 33 35 36 38 40 42 45 48 51 54
50 53 55 56 59 61 63 63 64 65 67 68 67 64 61 54 48 42 36 31 27 25 24 23 23 24 24 27 28 29 30 31 32 33 34 35 36 37 39 41 43 45 48 50
52 55 56 58 61 63 63 64 66 67 68 68 65 61 56 50 44 39 33 29 26 23 23 23 24 26 28 30 31 33 33 34 35 36 37 38 39 40 41 42 42 43 45 47
55 56 57 60 62 63 63 66 67 68 68 65 62 57 51 46 40 34 30 26 24 24 24 26 27 28 30 32 34 36 37 38 40 41 41 42 43 43 44 45 45 46 47 47
57 56 58 61 63 63 65 67 69 68 66 62 58 52 46 42 36 31 27 25 25 25 25 27 30 32 34 36 38 39 40 41 42 42 42 42 43 44 45 45 45 45 46 47
Wind_Direction
357 359 1 1 3 4 8 9 5 8 5 6 4 354 327 277 248 235 237 235 230 223 219 218 214 209 215 221 216 212 213 216 217 218 221 220 212 215 219 217 220 217 220 213
355 357 360 0 4 3 8 8 10 6 9 6 6 3 349 312 262 241 235 238 232 225 219 216 216 207 211 212 220 211 215 216 219 218 226 224 225 222 215 218 214 221 214 222
355 354 358 0 2 5 6 7 9 7 6 8 5 5 359 340 294 250 236 235 234 227 222 219 220 205 212 212 216 216 215 217 219 221 221 226 227 222 225 219 223 220 222 229
355 353 357 357 0 3 8 7 8 7 7 7 5 3 359 354 334 274 240 235 233 229 223 220 221 210 204 213 218 220 215 219 220 224 227 234 226 230 230 234 226 226 225 229
352 352 353 355 356 0 3 5 6 8 9 8 7 2 2 356 342 321 261 238 234 231 228 222 223 219 213 211 216 218 218 220 219 221 220 219 222 221 225 224 231 231 224 231
349 348 349 350 354 358 0 4 5 7 6 7 5 3 0 358 351 329 305 255 237 232 230 228 224 226 223 219 218 217 217 221 218 212 219 224 211 218 222 215 218 218 216 224
347 347 347 347 351 353 357 358 1 3 5 5 5 2 359 356 350 340 311 288 250 235 231 230 226 224 225 221 220 220 220 220 224 222 221 222 228 232 220 217 208 215 220 221
343 344 345 344 347 352 355 357 357 359 2 2 3 2 359 354 349 342 327 297 276 245 233 230 230 226 225 224 221 222 220 223 223 226 227 226 221 227 230 229 227 205 208 213
338 338 339 341 342 347 352 354 356 357 358 359 360 359 358 353 348 342 332 311 283 267 242 232 229 228 226 226 222 222 223 224 226 228 231 235 235 233 234 236 236 233 219 215
334 333 337 339 340 343 348 350 352 355 355 356 355 357 355 352 348 343 334 321 295 273 259 240 232 230 228 227 225 227 224 224 224 226 230 232 232 236 238 240 241 242 241 239
333 332 333 335 338 341 344 346 349 352 352 352 352 353 352 350 346 342 336 324 308 282 264 253 239 232 230 228 227 225 226 226 227 230 232 233 235 233 234 237 240 243 246 248
331 331 331 332 335 338 341 344 346 349 348 349 349 350 349 347 344 341 334 325 312 295 271 256 247 238 233 231 229 228 226 226 227 228 232 235 235 235 236 238 236 238 243 246
324 326 328 330 333 336 339 341 342 346 347 346 346 347 347 344 342 338 333 326 315 303 284 267 256 247 236 233 231 229 227 226 225 227 231 233 234 234 236 236 239 240 238 240
321 322 325 328 331 333 337 339 340 343 344 343 344 345 344 341 339 336 331 325 317 306 293 276 262 252 246 237 234 232 230 227 227 227 228 230 232 235 237 238 237 239 240 239
322 322 325 328 331 334 336 338 339 340 341 341 341 342 342 340 336 334 330 324 318 308 298 282 267 257 250 243 238 235 233 230 228 227 228 228 231 233 235 237 236 236 237 239
321 321 325 327 332 333 335 336 336 338 340 340 339 340 340 337 334 332 329 323 318 309 298 282 268 261 255 249 243 238 236 234 232 229 228 228 229 230 232 235 237 238 237 237
322 322 324 327 330 332 332 334 335 337 338 338 337 338 338 335 333 330 327 322 316 308 297 282 272 265 257 252 248 244 240 237 236 234 232 230 230 230 230 230 231 234 236 237
321 323 324 325 327 329 331 333 334 336 336 336 336 336 336 333 331 328 326 320 315 307 297 283 271 262 258 253 249 246 244 242 238 237 236 234 233 232 232 231 230 232 232 233
321 325 324 323 325 329 331 332 332 334 335 335 334 335 334 332 329 326 324 319 313 305 296 282 273 264 258 256 253 251 249 247 243 240 239 238 236 235 235 235 233 232 232 232
321 323 322 321 323 328 329 330 330 333 333 333 333 333 332 330 327 325 322 317 310 303 294 283 274 267 262 257 253 251 250 249 247 245 242 241 241 239 238 238 237 236 235 234
319 321 321 321 322 325 326 327 329 332 332 331 332 332 330 328 326 323 320 315 308 301 293 283 274 267 262 259 256 253 251 251 250 248 246 244 243 242 242 240 240 239 238 238
318 321 321 320 321 323 324 326 329 330 330 330 331 330 328 327 324 321 318 313 307 299 290 280 273 267 263 260 257 256 253 253 252 250 249 248 246 245 244 243 243 242 241 240
317 319 319 319 320 322 324 325 328 328 329 329 329 328 327 326 323 320 316 311 304 295 286 278 272 267 264 264 262 259 258 256 256 255 254 253 251 249 247 246 245 244 243 243
313 316 317 317 319 321 322 325 327 328 328 329 328 327 326 324 322 319 314 308 300 292 284 279 274 270 268 265 265 265 264 263 261 259 258 257 256 254 252 250 248 247 247 246
313 314 316 316 318 320 322 326 326 327 328 328 327 326 325 323 320 317 312 305 297 290 283 280 278 275 272 272 271 270 269 267 266 264 262 260 259 257 256 255 252 250 248 248
312 313 314 315 319 320 324 325 326 327 327 327 325 325 324 322 318 314 310 303 296 292 289 286 283 281 278 276 275 274 272 270 268 266 264 263 261 259 257 256 254 253 252 250
310 312 313 316 319 322 324 325 326 326 326 325 324 324 323 319 316 312 307 302 299 297 294 292 289 286 284 281 278 276 275 273 271 268 266 264 261 260 259 257 256 254 253 252
Height
5565 5555 5545 5534 5523 5512 5501 5489 5476 5467 5455 5446 5438 5431 5426 5426 5427 5430 5433 5438 5444 5449 5454 5460 5469 5479 5492 5501 5512 5528 5542 5553 5565 5577 5585 5595 5605 5616 5622 5634 5643 5655 5657 5668
5564 5555 5545 5535 5524 5513 5502 5491 5480 5467 5459 5447 5439 5432 5425 5422 5422 5425 5428 5433 5438 5444 5448 5454 5461 5472 5484 5495 5502 5517 5531 5542 5554 5566 5574 5584 5591 5600 5609 5620 5630 5637 5647 5655
5561 5552 5543 5534 5523 5513 5502 5491 5481 5469 5459 5447 5438 5431 5425 5420 5418 5419 5422 5426 5432 5437 5442 5448 5454 5465 5476 5488 5494 5508 5520 5531 5543 5554 5563 5573 5584 5590 5597 5605 5615 5625 5635 5643
5558 5549 5540 5531 5521 5511 5504 5493 5482 5472 5461 5451 5441 5432 5425 5420 5416 5415 5416 5419 5424 5430 5436 5442 5448 5457 5465 5475 5485 5497 5511 5520 5532 5543 5554 5563 5571 5576 5584 5593 5601 5609 5620 5630
5553 5546 5541 5531 5522 5512 5502 5495 5484 5473 5463 5453 5443 5434 5428 5420 5415 5411 5411 5412 5416 5422 5428 5434 5440 5448 5456 5467 5476 5486 5499 5510 5521 5532 5540 5552 5557 5563 5571 5578 5587 5597 5606 5614
5550 5543 5535 5528 5520 5510 5501 5493 5481 5471 5461 5453 5442 5434 5424 5418 5413 5409 5406 5406 5408 5412 5418 5424 5431 5438 5446 5457 5466 5475 5486 5496 5508 5519 5526 5536 5543 5551 5559 5564 5573 5582 5591 5601
5546 5540 5533 5525 5518 5508 5499 5492 5479 5470 5461 5451 5442 5434 5425 5417 5411 5406 5403 5400 5400 5402 5407 5412 5419 5427 5434 5444 5454 5463 5474 5483 5493 5503 5514 5524 5530 5538 5545 5550 5558 5566 5576 5588
5542 5536 5530 5522 5514 5506 5498 5488 5478 5468 5459 5450 5441 5432 5423 5415 5408 5402 5398 5395 5393 5393 5395 5400 5406 5413 5421 5430 5440 5450 5461 5470 5478 5486 5497 5507 5514 5521 5528 5537 5545 5553 5560 5570
5539 5533 5526 5519 5511 5502 5494 5484 5476 5466 5457 5448 5439 5430 5422 5413 5405 5398 5392 5387 5385 5384 5384 5387 5392 5399 5407 5414 5425 5435 5445 5455 5463 5471 5480 5490 5498 5507 5516 5522 5530 5538 5547 5556
5534 5528 5522 5515 5507 5499 5490 5481 5472 5463 5453 5445 5435 5427 5418 5410 5402 5393 5387 5382 5377 5375 5374 5375 5378 5383 5390 5399 5407 5418 5428 5437 5447 5456 5465 5473 5481 5490 5500 5507 5515 5522 5531 5540
5530 5523 5517 5510 5503 5495 5487 5478 5468 5459 5449 5440 5431 5421 5413 5405 5397 5388 5380 5374 5370 5366 5364 5364 5365 5368 5374 5382 5390 5399 5409 5420 5429 5438 5447 5456 5464 5473 5483 5491 5499 5507 5515 5524
5522 5518 5511 5505 5497 5489 5480 5472 5463 5453 5443 5434 5425 5416 5407 5398 5390 5382 5373 5366 5361 5357 5354 5352 5353 5354 5358 5364 5372 5381 5389 5399 5410 5420 5429 5437 5446 5456 5465 5474 5482 5491 5499 5508
5517 5511 5504 5497 5490 5482 5474 5465 5456 5447 5437 5427 5419 5410 5400 5390 5381 5373 5365 5357 5351 5347 5343 5342 5342 5342 5344 5348 5353 5361 5370 5380 5389 5399 5410 5420 5428 5436 5445 5455 5464 5473 5482 5489
5509 5504 5498 5490 5483 5475 5467 5458 5449 5440 5431 5421 5411 5402 5392 5382 5373 5364 5355 5347 5341 5336 5333 5331 5329 5329 5331 5334 5339 5344 5351 5361 5370 5379 5388 5398 5408 5417 5426 5435 5444 5454 5463 5471
5501 5496 5490 5483 5476 5467 5458 5450 5441 5432 5423 5413 5403 5393 5384 5374 5364 5355 5345 5337 5331 5326 5323 5320 5318 5317 5318 5320 5324 5329 5334 5341 5350 5359 5368 5377 5385 5395 5405 5414 5423 5433 5442 5452
5494 5487 5481 5474 5467 5458 5450 5441 5433 5423 5414 5404 5395 5385 5375 5365 5354 5344 5334 5326 5320 5316 5312 5309 5306 5307 5307 5308 5310 5314 5318 5324 5331 5339 5347 5356 5364 5373 5381 5391 5400 5409 5420 5429
5485 5478 5472 5465 5457 5450 5441 5432 5423 5414 5404 5395 5385 5375 5365 5354 5343 5333 5324 5315 5309 5305 5302 5299 5296 5296 5295 5297 5299 5302 5305 5309 5314 5320 5327 5335 5343 5352 5360 5368 5377 5386 5395 5405
5476 5469 5462 5455 5448 5440 5431 5422 5413 5404 5394 5384 5375 5364 5354 5343 5332 5322 5314 5305 5299 5294 5291 5288 5287 5286 5285 5286 5287 5290 5293 5296 5300 5305 5311 5317 5324 5331 5339 5347 5355 5363 5372 5381
5465 5459 5452 5446 5438 5429 5421 5411 5402 5393 5383 5374 5364 5353 5343 5332 5321 5311 5302 5295 5288 5284 5281 5278 5277 5276 5276 5276 5278 5279 5281 5283 5286 5290 5295 5300 5305 5311 5318 5325 5333 5340 5349 5357
5454 5448 5441 5435 5427 5418 5410 5401 5392 5382 5372 5362 5352 5341 5331 5320 5309 5299 5291 5284 5278 5274 5271 5269 5267 5267 5267 5267 5268 5269 5271 5272 5275 5278 5280 5284 5288 5293 5298 5304 5311 5319 5326 5334
5444 5437 5431 5423 5416 5407 5399 5390 5380 5370 5361 5350 5340 5330 5319 5307 5296 5287 5280 5274 5269 5264 5261 5259 5258 5258 5258 5258 5259 5260 5261 5262 5264 5267 5269 5272 5275 5278 5282 5287 5292 5298 5304 5311
5434 5427 5420 5413 5405 5397 5387 5378 5369 5358 5348 5338 5327 5316 5305 5295 5285 5276 5269 5264 5259 5255 5253 5251 5250 5250 5250 5250 5251 5251 5252 5253 5254 5256 5258 5260 5263 5265 5268 5271 5275 5280 5285 5290
5424 5417 5410 5402 5394 5385 5375 5366 5356 5346 5336 5325 5314 5303 5292 5282 5273 5266 5259 5254 5250 5247 5244 5243 5242 5242 5242 5243 5242 5242 5242 5243 5244 5245 5247 5248 5250 5253 5255 5257 5260 5263 5267 5271
5413 5407 5399 5391 5382 5373 5363 5353 5343 5333 5323 5311 5301 5290 5279 5269 5262 5255 5250 5245 5242 5239 5237 5236 5235 5235 5235 5234 5233 5233 5233 5233 5234 5234 5235 5236 5237 5239 5241 5243 5245 5248 5250 5254
5403 5395 5388 5379 5370 5360 5350 5341 5330 5320 5309 5298 5287 5277 5267 5258 5252 5245 5241 5237 5234 5232 5230 5229 5228 5227 5226 5224 5223 5222 5222 5221 5221 5221 5222 5223 5224 5225 5226 5228 5230 5233 5236 5239
5391 5383 5375 5366 5357 5347 5337 5328 5318 5307 5295 5284 5273 5263 5254 5247 5241 5236 5232 5229 5227 5224 5223 5221 5219 5217 5216 5213 5212 5210 5209 5208 5207 5207 5207 5207 5208 5209 5211 5212 5215 5217 5220 5223
5378 5371 5362 5353 5344 5334 5324 5314 5304 5293 5281 5270 5260 5251 5243 5237 5232 5228 5224 5222 5219 5217 5214 5212 5209 5207 5204 5201 5199 5196 5194 5193 5191 5191 5191 5191 5192 5192 5193 5195 5197 5200 5202 5206